This is the latest recevied weather packets stored in our database for station/object KB3AWQ. If no packets are shown the sender has not sent any weather packets the latest 10 day(s).
| Time | Temp. | Humidity | Pressure | Rain* | Wind** | Luminosity | Snow |
|---|---|---|---|---|---|---|---|
| 1788051266 | 19.44° C | 84% | 1022.3 hPa | 0 mm | - | 0 W/m² | - |
| 1788050967 | 20° C | 84% | 1022.2 hPa | 0 mm | - | 0 W/m² | - |
| 1788050666 | 20° C | 83% | 1022.2 hPa | 0 mm | - | 0 W/m² | - |
| 1788050366 | 20° C | 82% | 1022.2 hPa | 0 mm | - | 0 W/m² | - |
| 1788050066 | 20.56° C | 82% | 1022.2 hPa | 0 mm | - | 0 W/m² | - |
| 1788049766 | 20.56° C | 81% | 1022.1 hPa | 0 mm | - | 0 W/m² | - |
| 1788049466 | 20.56° C | 81% | 1022 hPa | 0 mm | - | 0 W/m² | - |
| 1788049166 | 21.11° C | 80% | 1022.1 hPa | 0 mm | - | 0 W/m² | - |
| 1788048866 | 21.11° C | 79% | 1022.1 hPa | 0 mm | - | 0 W/m² | - |
| 1788048566 | 21.67° C | 78% | 1022.2 hPa | 0 mm | - | 0 W/m² | - |
| 1788048269 | 21.67° C | 77% | 1022.2 hPa | 0 mm | - | 0 W/m² | - |
| 1788047967 | 22.22° C | 75% | 1022.2 hPa | 0 mm | - | 1 W/m² | - |
| 1788047666 | 22.78° C | 71% | 1022.2 hPa | 0 mm | - | 1 W/m² | - |
| 1788047366 | 22.78° C | 69% | 1022.2 hPa | 0 mm | - | 2 W/m² | - |
| 1788047066 | 22.78° C | 70% | 1022.3 hPa | 0 mm | - | 4 W/m² | - |
| 1788046766 | 23.33° C | 69% | 1022.4 hPa | 0 mm | - | 6 W/m² | - |
| 1788046467 | 23.33° C | 69% | 1022.4 hPa | 0 mm | - | 9 W/m² | - |
| 1788046166 | 23.33° C | 68% | 1022.4 hPa | 0 mm | - | 13 W/m² | - |
| 1788045867 | 23.33° C | 67% | 1022.4 hPa | 0 mm | - | 18 W/m² | - |
| 1788045566 | 23.89° C | 66% | 1022.4 hPa | 0 mm | - | 24 W/m² | - |
| 1788045266 | 23.89° C | 66% | 1022.2 hPa | 0 mm | - | 25 W/m² | - |
| 1788044967 | 23.89° C | 66% | 1022.2 hPa | 0 mm | - | 28 W/m² | - |
| 1788044666 | 23.89° C | 66% | 1022.2 hPa | 0 mm | - | 25 W/m² | - |
| 1788044366 | 23.89° C | 64% | 1022.3 hPa | 0 mm | - | 23 W/m² | - |
| 1788044066 | 24.44° C | 63% | 1022.2 hPa | 0 mm | - | 28 W/m² | - |
* Rain latest hour (hover to see other rain measurements)
** Current wind speed in m/s (hover to see current wind gust speed)